loading
|
Showing default

DRAGON FREEDOM-2, 61447

Orbit data source: Space-Track

DRAGON FREEDOM-2, 61447 is a payload satellite owned by SpaceX (US) in LEO that was launched on Sat, 28 Sep 2024 UTC via an FALCON 9 launch vehicle from the Air Force Eastern Test Range (AFETR). Payloads include a variety of satellites, spacecraft, and rockets equipped with specific instruments for various scientific and technological missions. These include communications satellites like Starlink; space stations such as the ISS; scientific satellites like the Hubble; Earth observation satellites from companies like Planet Labs, Umbra, and HawkEye 360; GPS; miniature CubeSats for education and research; and military/defense satellites.

Loading next visibility...
Next conjunction unknown
Loading greatness...
DRAGON FREEDOM-2 details
Identifier
61447, 2024-178A
Orbit
LEO
Last TLE update17 hours ago
Origin
Flag of USSpaceX (US)
ManufacturerSpaceX
MissionOperational spacecraft
Bus & MotorDRAGON CM, Unknown motor
Mass~13,055 kg wet, ~9,500 kg dry
Launch date (UTC)
2024-09-28 (2 weeks ago)
Launch vehicle
FALCON 9
Launch site
Air Force Eastern Test Range (AFETR)
Object type
Payload
Rocket body
Debris
Shape & HBRUnknown
Radar Cross SectionRCS unknown

Expand to show TLE details & history

TLE from 17 hours ago
0 DRAGON FREEDOM-2
1 61447U 24178A   24287.85348720  .00026028  00000-0  46498-3 0  9996
2 61447  51.6377  87.6318 0009119  65.7982 294.3959 15.49812774  1991
Epoch: 2024-10-13T20:29Z
Definitive object data (Epoch: 2024-10-13T20:29:01.294Z)
Latitude-0°
Longitude117.48739°
Altitude415.46 km
Speed7.665 km/s
True Right ascension05h 50m 31s
True Declination0° 00' 00"
Sunlit
Object was in full shadow at TLE epoch
Predictive object data (real-time)
Latitude51.19009°
Longitude-144.24415°
Altitude417.661 km
Speed7.67 km/s
Apparent Right ascension16h 54m 31s
Apparent Declination14° 53' 54"
Sunlit
Object is in daylight
Predictive observer data (real-time)
Local Sidereal Time08:29:24
Azimuth54.091° ENE
Elevation-15.879°
Doppler factor1
Orbital elements
Apogee423.979 km
Perigee411.584 km
Semi-major axis6,795.919 km
Eccentricity0.0009119
Inclination51.6377°
RAAN87.6318°
Arg. of periapsis65.7982°
True anomaly294.30069°
Mean anomaly294.3959°
Eccentric anomaly294.3483°
Mean motion3.8741 °/min
BSTAR0.00046498
Period92.92 mins
No data available
No data available
Other satellites on launch #178 in the year 2024 (2024-09-28 UTC)

DRAGON FREEDOM-2 Visibility forecast

Observer location: 39.9160978°, -105.1181434

Span
Click to sort rows by Start time (UTC) header in descending order
Start Az.
Max El. time (UTC)
Max El. Az.
Max El.
End time (UTC)
End Az.
4 mins2024-10-14 15:19:27.433Z297.876° NW2024-10-14 15:21:27.433Z339.319° N17.482°2024-10-14 15:23:27.433Z20.958° NNE
4 mins2024-10-14 20:12:27.433Z304.425° NW2024-10-14 20:14:27.433Z147.627° SSE43.267°2024-10-14 20:16:27.433Z131.465° SE
4 mins2024-10-15 12:54:27.433Z199.227° SSW2024-10-15 12:56:27.433Z119.259° SE34.334°2024-10-15 12:58:27.433Z69.33° E